METEOR 1-24

导读

METEOR 1-24是苏联(CIS)于1976年4月7日发射的第一代“流星”(Meteor-1)系列极轨气象卫星。作为苏联首个业务化气象卫星系列成员,运行于约900公里高度的非太阳同步极轨道,质量约2200千克,搭载电视相机、红外扫描仪等载荷,获取低分辨率云图,为气象监测与预报提供数据支撑,推动了苏联早期气象卫星业务化发展。

Basic Information
目录编号:
8799
目录名称:
METEOR 1-24
国际标识:
1976-032A
轨道中心:
EARTH
卫星名称:
METEOR 1-24
卫星全名:
--
卫星状态:
在轨 (已飞行18420 天)
发射日期:
1976-04-07 UTC
国别 :
俄罗斯(独联体) (CIS)
星等 :
--
This satellite is enrolled in the Space Conjunction Data Service (SCDS) and the current flight risk assessment level is: No High Risk
Orbit Information
数据来源 国际轨道数据
星历时间: 2026-09-11T10:53:55+0800
1天前
查看轨道信息
半长轴: 7230.968km
偏心率: 0.0034044
轨道倾角: 81.257°
近地点辐角 332.101°
升交点赤经 144.495°
平近点角 27.833°
近地点: 828.213km
远地点: 877.449km
周期: 101.989分钟
每日圈数: 14.119136
Detailed Information
使用方式:
暂无
2D Orbit Map
3D Orbit Map
Orbit Altitude Analysis Chart
Orbit Inclination Analysis Chart
Orbit Comprehensive Analysis Chart
View Comprehensive Chart
Conjunction Data List
Event ID Objects TCA Miss Dist (km) Collision Risk Probability Collision Risk Index (CRI) Action
CDM_260913-194700-879903-091621
2026-09-13T
19:47:34+0000
1.441 km
极远距离
7.678719E-6 低风险 0.53
CDM_260912-090400-879902-382829
PSLV R/B (23828)
2026-09-12T
09:04:07+0000
2.048 km
极远距离
2.549218E-6 低风险 0.43
CDM_260911-225100-879903-124821
2026-09-11T
22:51:39+0000
2.140 km
极远距离
2.429123E-6 低风险 0.43
CDM_260912-104700-879902-323329
2026-09-12T
10:47:01+0000
2.560 km
极远距离
1.671801E-6 低风险 0.39
Miss Distance Evolution Trend with All Objects
Collision Probability Evolution Trend with All Objects